• In Portugal
  • List of Countries
  • For 7 days
  • Water Temperature
  • Satellite Maps
  • Weather Map
  • Weather Widgets
  • user-avatar
    Login

    Hourly Weather Baalbek

    Today, 23 May, Wednesday

    Time Temperature Precipitation Wind Pressure Humidity
    00:00 +21°C° 0 mm 2 mps 661 mmHg 36%
    01:00 +21°C° 0 mm 2 mps 661 mmHg 37%
    02:00 +20°C° 0 mm 2 mps 661 mmHg 38%
    03:00 +20°C° 0 mm 2 mps 660 mmHg 40%
    04:00 +21°C° 0 mm 1 mps 660 mmHg 41%
    05:00 +20°C° 0 mm 1 mps 660 mmHg 43%
    06:00 +21°C° 0 mm 2 mps 661 mmHg 37%
    07:00 +24°C° 0 mm 2 mps 661 mmHg 31%
    08:00 +26°C° 0 mm 3 mps 662 mmHg 24%
    09:00 +26°C° 0 mm 3 mps 662 mmHg 23%
    10:00 +27°C° 0 mm 3 mps 662 mmHg 21%
    11:00 +28°C° 0 mm 4 mps 662 mmHg 20%
    12:00 +28°C° 0 mm 4 mps 662 mmHg 21%
    13:00 +28°C° 0 mm 5 mps 662 mmHg 23%
    14:00 +28°C° 0 mm 5 mps 662 mmHg 24%
    15:00 +27°C° 0 mm 5 mps 661 mmHg 28%
    16:00 +26°C° 0 mm 4 mps 661 mmHg 31%
    17:00 +25°C° 0 mm 4 mps 661 mmHg 35%
    18:00 +23°C° 0 mm 4 mps 660 mmHg 41%
    19:00 +22°C° 0 mm 3 mps 660 mmHg 47%
    20:00 +21°C° 0 mm 2 mps 660 mmHg 54%
    21:00 +20°C° 0 mm 2 mps 660 mmHg 55%
    22:00 +20°C° 0 mm 2 mps 660 mmHg 56%
    23:00 +19°C° 0 mm 2 mps 660 mmHg 57%

    Tomorrow, 24 May, Thursday

    Time Temperature Precipitation Wind Pressure Humidity
    00:00 +19°C° 0 mm 2 mps 660 mmHg 55%
    01:00 +18°C° 0 mm 2 mps 660 mmHg 53%
    02:00 +18°C° 0 mm 2 mps 660 mmHg 51%
    03:00 +19°C° 0 mm 1 mps 660 mmHg 50%
    04:00 +19°C° 0 mm 1 mps 659 mmHg 49%
    05:00 +19°C° 0 mm 1 mps 659 mmHg 48%
    06:00 +20°C° 0 mm 1 mps 660 mmHg 43%
    07:00 +22°C° 0 mm 1 mps 660 mmHg 37%
    08:00 +24°C° 0 mm 1 mps 661 mmHg 32%
    09:00 +25°C° 0 mm 2 mps 661 mmHg 31%
    10:00 +26°C° 0 mm 2 mps 661 mmHg 30%
    11:00 +26°C° 0 mm 2 mps 661 mmHg 28%
    12:00 +27°C° 0 mm 3 mps 661 mmHg 30%
    13:00 +27°C° 0 mm 3 mps 660 mmHg 31%
    14:00 +27°C° 0 mm 3 mps 660 mmHg 32%
    15:00 +27°C° 0 mm 3 mps 660 mmHg 34%
    16:00 +26°C° 0 mm 3 mps 659 mmHg 36%
    17:00 +26°C° 0 mm 3 mps 659 mmHg 38%
    18:00 +25°C° 0 mm 3 mps 659 mmHg 43%
    19:00 +24°C° 0 mm 2 mps 659 mmHg 48%
    20:00 +23°C° 0 mm 2 mps 659 mmHg 53%
    21:00 +21°C° 0 mm 2 mps 659 mmHg 52%
    22:00 +21°C° 0 mm 2 mps 659 mmHg 52%
    23:00 +21°C° 0 mm 1 mps 659 mmHg 52%

    Day after tomorrow, 25 May, Friday

    Time Temperature Precipitation Wind Pressure Humidity
    00:00 +21°C° 0 mm 1 mps 658 mmHg 49%
    01:00 +20°C° 0 mm 1 mps 658 mmHg 46%
    02:00 +19°C° 0 mm 2 mps 658 mmHg 43%
    03:00 +20°C° 0 mm 1 mps 658 mmHg 41%
    04:00 +20°C° 0 mm 1 mps 657 mmHg 40%
    05:00 +20°C° 0 mm 1 mps 657 mmHg 39%
    06:00 +20°C° 0 mm 2 mps 658 mmHg 36%
    07:00 +23°C° 0 mm 2 mps 659 mmHg 34%
    08:00 +25°C° 0 mm 2 mps 659 mmHg 31%
    09:00 +26°C° 0 mm 3 mps 659 mmHg 30%
    10:00 +26°C° 0 mm 4 mps 659 mmHg 30%
    11:00 +27°C° 0 mm 4 mps 659 mmHg 29%
    12:00 +27°C° 0 mm 5 mps 659 mmHg 28%
    13:00 +27°C° 0 mm 5 mps 659 mmHg 28%
    14:00 +28°C° 0 mm 6 mps 659 mmHg 27%
    15:00 +27°C° 0 mm 5 mps 659 mmHg 28%
    16:00 +26°C° 0 mm 5 mps 659 mmHg 29%
    17:00 +25°C° 0 mm 5 mps 658 mmHg 31%
    18:00 +23°C° 0 mm 4 mps 658 mmHg 35%
    19:00 +22°C° 0 mm 3 mps 658 mmHg 40%
    20:00 +21°C° 0 mm 2 mps 658 mmHg 44%
    21:00 +20°C° 0 mm 2 mps 658 mmHg 45%
    22:00 +20°C° 0 mm 2 mps 658 mmHg 45%
    23:00 +20°C° 0 mm 1 mps 658 mmHg 45%

    26 May, Saturday

    Time Temperature Precipitation Wind Pressure Humidity
    00:00 +20°C° 0 mm 1 mps 658 mmHg 46%
    01:00 +20°C° 0 mm 1 mps 657 mmHg 46%
    02:00 +19°C° 0 mm 1 mps 657 mmHg 46%
    03:00 +19°C° 0.1 mm 1 mps 657 mmHg 49%
    04:00 +19°C° 0.1 mm 1 mps 657 mmHg 52%
    05:00 +19°C° 0.1 mm 1 mps 657 mmHg 54%
    06:00 +20°C° 0.1 mm 2 mps 658 mmHg 49%
    07:00 +21°C° 0.1 mm 3 mps 658 mmHg 45%
    08:00 +23°C° 0.1 mm 4 mps 659 mmHg 40%
    09:00 +25°C° 0.1 mm 4 mps 659 mmHg 38%
    10:00 +26°C° 0.1 mm 5 mps 660 mmHg 36%
    11:00 +27°C° 0.1 mm 6 mps 660 mmHg 34%
    12:00 +27°C° 0.2 mm 6 mps 660 mmHg 33%
    13:00 +28°C° 0.2 mm 6 mps 660 mmHg 32%
    14:00 +28°C° 0.2 mm 6 mps 659 mmHg 31%
    15:00 +28°C° 0.1 mm 5 mps 659 mmHg 32%
    16:00 +27°C° 0.1 mm 5 mps 659 mmHg 32%
    17:00 +27°C° 0.1 mm 5 mps 659 mmHg 32%
    18:00 +26°C° 0 mm 4 mps 659 mmHg 37%
    19:00 +24°C° 0 mm 3 mps 659 mmHg 42%
    20:00 +23°C° 0 mm 2 mps 659 mmHg 46%
    21:00 +23°C° 0 mm 1 mps 659 mmHg 48%
    22:00 +22°C° 0 mm 1 mps 659 mmHg 50%
    23:00 +22°C° 0 mm 1 mps 659 mmHg 51%

    27 May, Sunday

    Time Temperature Precipitation Wind Pressure Humidity
    00:00 +21°C° 0 mm 1 mps 659 mmHg 51%
    01:00 +21°C° 0 mm 1 mps 658 mmHg 50%
    02:00 +21°C° 0 mm 1 mps 658 mmHg 50%
    03:00 +21°C° 0 mm 1 mps 658 mmHg 48%
    04:00 +21°C° 0 mm 1 mps 659 mmHg 47%
    05:00 +21°C° 0 mm 1 mps 659 mmHg 45%
    06:00 +22°C° 0.1 mm 1 mps 660 mmHg 40%
    07:00 +24°C° 0.1 mm 1 mps 660 mmHg 35%
    08:00 +26°C° 0.1 mm 2 mps 661 mmHg 30%
    09:00 +27°C° 0 mm 3 mps 661 mmHg 28%
    10:00 +29°C° 0 mm 4 mps 661 mmHg 26%
    11:00 +30°C° 0 mm 5 mps 661 mmHg 23%
    12:00 +30°C° 0 mm 5 mps 661 mmHg 24%
    13:00 +30°C° 0 mm 4 mps 660 mmHg 24%
    14:00 +30°C° 0 mm 4 mps 660 mmHg 24%
    15:00 +29°C° 0.3 mm 4 mps 660 mmHg 25%
    16:00 +29°C° 0.3 mm 3 mps 660 mmHg 26%
    17:00 +29°C° 0.3 mm 2 mps 660 mmHg 27%
    18:00 +27°C° 0.2 mm 2 mps 660 mmHg 32%
    19:00 +26°C° 0.2 mm 2 mps 660 mmHg 37%
    20:00 +25°C° 0.2 mm 2 mps 660 mmHg 42%
    21:00 +25°C° 0.2 mm 2 mps 660 mmHg 42%
    22:00 +24°C° 0.2 mm 3 mps 660 mmHg 42%
    23:00 +24°C° 0.2 mm 3 mps 659 mmHg 42%

    28 May, Monday

    Time Temperature Precipitation Wind Pressure Humidity
    00:00 +24°C° 0.2 mm 3 mps 659 mmHg 43%
    01:00 +23°C° 0.2 mm 2 mps 659 mmHg 45%
    02:00 +23°C° 0.2 mm 2 mps 659 mmHg 47%
    03:00 +23°C° 0.2 mm 2 mps 658 mmHg 47%
    04:00 +21°C° 0.2 mm 2 mps 658 mmHg 47%
    05:00 +21°C° 0.2 mm 2 mps 658 mmHg 48%
    06:00 +24°C° 0.2 mm 2 mps 659 mmHg 43%
    07:00 +25°C° 0.2 mm 2 mps 659 mmHg 39%
    08:00 +27°C° 0.2 mm 2 mps 660 mmHg 34%
    09:00 +28°C° 0 mm 2 mps 660 mmHg 32%
    10:00 +29°C° 0 mm 2 mps 660 mmHg 29%
    11:00 +30°C° 0 mm 3 mps 660 mmHg 27%
    12:00 +30°C° 0 mm 3 mps 659 mmHg 26%
    13:00 +31°C° 0 mm 3 mps 659 mmHg 26%
    14:00 +31°C° 0 mm 3 mps 659 mmHg 25%
    15:00 +30°C° 0.2 mm 2 mps 658 mmHg 27%
    16:00 +30°C° 0.2 mm 2 mps 658 mmHg 29%
    17:00 +29°C° 0.2 mm 2 mps 658 mmHg 31%
    18:00 +28°C° 0.6 mm 1 mps 658 mmHg 36%
    19:00 +27°C° 0.6 mm 1 mps 658 mmHg 41%
    20:00 +26°C° 0.6 mm 1 mps 658 mmHg 46%
    21:00 +26°C° 0.2 mm 1 mps 658 mmHg 45%
    22:00 +25°C° 0.2 mm 1 mps 657 mmHg 45%
    23:00 +25°C° 0.2 mm 2 mps 657 mmHg 44%
    Show more